Showing default

TYVAK-0130, 48606

Orbit data source: Space-Track

TYVAK-0130, 48606 is an American payload satellite in LEO that was launched on Sat, 15 May 2021 UTC via an FALCON 9 launch vehicle from the Air Force Eastern Test Range (AFETR). Payload-class satellites include a variety of spacecraft equipped with specific instruments for various scientific and technological missions. These include communications satellites like Starlink; space stations such as the ISS; scientific satellites like the Hubble; Earth observation satellites from companies like Planet Labs, Umbra, and HawkEye 360; GPS; miniature CubeSats for education and research; and military/defense satellites.

Loading next visibility...
Identifier
48606, 2021-041BF
Orbit
LEO
Country
Flag of USUS
Related business
Manufacturer
Tyvak NSS
Mission
Operational Commercial Tech/Ast
Bus & Motor
CUBESAT 6U, Unknown motor
Mass
~11 kg wet, ~11 kg dry
Launch date (UTC)
2021-05-15 (5 years ago)
Launch vehicle
FALCON 9
Launch site
Air Force Eastern Test Range (AFETR)
Object type
Payload
Rocket body
Debris
Shape & HBR
Box + 2 Pan, 0.1 m
Radar Cross Section
0.080 m², Small (<0.1 m²)

Expand to show TLE details & history
Last TLE update: 22 hours ago

TLE from 22 hours ago
0 TYVAK-0130
1 48606U 21041BF  25348.68736019  .00007961  00000-0  33502-3 0  9993
2 48606  52.9959 160.9347 0009545 314.8663  45.1557 15.24258322252212
Epoch: 2025-12-14T16:29Z
TLE epoch observation values (Epoch: 2025-12-14T16:29:47.920Z)
Latitude
-0.00002°
Longitude
-170.11168°
Altitude
489.272 km
Speed
7.624 km/s
True Right ascension
10h 43m 44s
True Declination
0° 00' 00"
Sunlit
Object was in daylight at epoch
Visualization orbit readout
Latitude
Unknown
Longitude
Unknown
Altitude
Unknown
Speed
Unknown
Apparent Right ascension
Unknown
Apparent Declination
Unknown
Sunlit
N/A
Visualization observer readout
Local Sidereal Time
13:19:53
Azimuth
Unknown
Elevation
Unknown
Doppler factor
Unknown
Orbital elements
Apogee altitude
499.854 km
Perigee altitude
486.737 km
Semi-major axis
6,871.433 km
Eccentricity
0.00095
Inclination
52.9959°
RAAN
160.9347°
Arg. of periapsis
314.8663°
True anomaly
45.23332°
Mean anomaly
45.1557°
Eccentric anomaly
45.1945°
Mean motion
3.81041 °/min
Orbital period
94.48 mins
BSTAR
0.00033502
Loading maneuver chart data...
Computing Atmospheric mass density...
Loading historical data...
Loading historical data...
Loading historical data...
Loading historical data...
Loading historical data...
Loading historical data...
Loading historical data...

Documentation

Showing up to 5 results
|